Meteo pe oră la Alins

Astăzi, 23 Ianuarie, Sâmbătă

Timp Temperatura Precipitaţii Vânt Presiune Umiditate
00:00 -3°C° 0.2 mm 1 m/s 630 mmHg 87%
01:00 -4°C° 0 mm 1 m/s 629 mmHg 88%
02:00 -4°C° 0 mm 1 m/s 629 mmHg 88%
03:00 -6°C° 0 mm 1 m/s 628 mmHg 88%
04:00 -4°C° 0.1 mm 1 m/s 628 mmHg 90%
05:00 -4°C° 0.1 mm 1 m/s 628 mmHg 92%
06:00 -3°C° 0.1 mm 1 m/s 628 mmHg 93%
07:00 -3°C° 0.4 mm 1 m/s 628 mmHg 94%
08:00 -4°C° 0.4 mm 2 m/s 629 mmHg 94%
09:00 -3°C° 0.4 mm 2 m/s 629 mmHg 94%
10:00 -2°C° 0.2 mm 3 m/s 630 mmHg 88%
11:00 -1°C° 0.2 mm 3 m/s 630 mmHg 81%
12:00 -1°C° 0.2 mm 4 m/s 631 mmHg 75%
13:00 0°C° 0.1 mm 3 m/s 631 mmHg 76%
14:00 0°C° 0.1 mm 3 m/s 630 mmHg 76%
15:00 +1°C° 0.1 mm 2 m/s 630 mmHg 77%
16:00 -1°C° 0 mm 2 m/s 629 mmHg 82%
17:00 0°C° 0 mm 1 m/s 629 mmHg 87%
18:00 -2°C° 0 mm 1 m/s 628 mmHg 92%
19:00 -2°C° 0.5 mm 1 m/s 628 mmHg 93%
20:00 -2°C° 0.5 mm 1 m/s 627 mmHg 95%
21:00 -2°C° 0.5 mm 1 m/s 627 mmHg 97%
22:00 -1°C° 0.9 mm 1 m/s 626 mmHg 97%
23:00 -2°C° 0.9 mm 0 m/s 626 mmHg 97%

Mâine, 24 Ianuarie, Duminică

Timp Temperatura Precipitaţii Vânt Presiune Umiditate
00:00 -2°C° 0.9 mm 0 m/s 626 mmHg 97%
01:00 -2°C° 0.4 mm 0 m/s 626 mmHg 97%
02:00 -1°C° 0.4 mm 1 m/s 626 mmHg 97%
03:00 -1°C° 0.4 mm 1 m/s 626 mmHg 97%
04:00 -3°C° 0.2 mm 2 m/s 626 mmHg 94%
05:00 -4°C° 0.2 mm 2 m/s 627 mmHg 92%
06:00 -6°C° 0.2 mm 3 m/s 627 mmHg 89%
07:00 -5°C° 0.1 mm 3 m/s 628 mmHg 87%
08:00 -5°C° 0.1 mm 3 m/s 629 mmHg 85%
09:00 -4°C° 0.1 mm 3 m/s 630 mmHg 83%
10:00 -2°C° 0 mm 2 m/s 631 mmHg 79%
11:00 -1°C° 0 mm 2 m/s 631 mmHg 75%
12:00 +1°C° 0 mm 2 m/s 632 mmHg 72%
13:00 +1°C° 0 mm 2 m/s 632 mmHg 74%
14:00 +1°C° 0 mm 2 m/s 632 mmHg 77%
15:00 +1°C° 0 mm 2 m/s 632 mmHg 80%
16:00 -1°C° 0.1 mm 2 m/s 632 mmHg 84%
17:00 -3°C° 0.1 mm 2 m/s 632 mmHg 87%
18:00 -4°C° 0.1 mm 2 m/s 632 mmHg 90%
19:00 -4°C° 0.2 mm 2 m/s 632 mmHg 89%
20:00 -5°C° 0.2 mm 2 m/s 632 mmHg 88%
21:00 -5°C° 0.2 mm 2 m/s 632 mmHg 87%
22:00 -5°C° 0.1 mm 2 m/s 633 mmHg 87%
23:00 -5°C° 0.1 mm 2 m/s 633 mmHg 86%

Poimâine, 25 Ianuarie, Luni

Timp Temperatura Precipitaţii Vânt Presiune Umiditate
00:00 -6°C° 0.1 mm 3 m/s 633 mmHg 86%
01:00 -6°C° 0.1 mm 3 m/s 633 mmHg 85%
02:00 -7°C° 0.1 mm 3 m/s 633 mmHg 85%
03:00 -7°C° 0.1 mm 3 m/s 634 mmHg 84%
04:00 -7°C° 0 mm 3 m/s 634 mmHg 84%
05:00 -8°C° 0 mm 3 m/s 634 mmHg 84%
06:00 -8°C° 0 mm 3 m/s 634 mmHg 84%
07:00 -6°C° 0 mm 2 m/s 635 mmHg 82%
08:00 -5°C° 0 mm 2 m/s 635 mmHg 80%
09:00 -4°C° 0 mm 2 m/s 636 mmHg 78%
10:00 -1°C° 0 mm 1 m/s 637 mmHg 74%
11:00 0°C° 0 mm 1 m/s 638 mmHg 70%
12:00 +2°C° 0 mm 1 m/s 638 mmHg 66%
13:00 +2°C° 0 mm 1 m/s 638 mmHg 68%
14:00 +2°C° 0 mm 1 m/s 638 mmHg 71%
15:00 +2°C° 0 mm 1 m/s 638 mmHg 73%
16:00 +1°C° 0 mm 1 m/s 638 mmHg 76%
17:00 0°C° 0 mm 1 m/s 638 mmHg 79%
18:00 -1°C° 0 mm 1 m/s 638 mmHg 81%
19:00 -2°C° 0 mm 1 m/s 638 mmHg 80%
20:00 -5°C° 0 mm 2 m/s 638 mmHg 79%
21:00 -5°C° 0 mm 2 m/s 638 mmHg 78%
22:00 -5°C° 0 mm 2 m/s 638 mmHg 75%
23:00 -5°C° 0 mm 2 m/s 638 mmHg 72%

26 Ianuarie, Marţi

Timp Temperatura Precipitaţii Vânt Presiune Umiditate
00:00 -5°C° 0 mm 2 m/s 638 mmHg 69%
01:00 -6°C° 0 mm 2 m/s 638 mmHg 68%
02:00 -6°C° 0 mm 2 m/s 638 mmHg 67%
03:00 -6°C° 0 mm 2 m/s 638 mmHg 66%
04:00 -5°C° 0 mm 2 m/s 638 mmHg 65%
05:00 -5°C° 0 mm 2 m/s 638 mmHg 64%
06:00 -3°C° 0 mm 1 m/s 638 mmHg 64%
07:00 -1°C° 0 mm 1 m/s 639 mmHg 65%
08:00 0°C° 0 mm 1 m/s 639 mmHg 66%
09:00 +1°C° 0 mm 1 m/s 640 mmHg 67%
10:00 +1°C° 0 mm 0 m/s 640 mmHg 69%
11:00 +2°C° 0 mm 0 m/s 640 mmHg 71%
12:00 +3°C° 0 mm 0 m/s 641 mmHg 74%
13:00 +3°C° 0 mm 0 m/s 640 mmHg 76%
14:00 +3°C° 0 mm 0 m/s 640 mmHg 77%
15:00 +5°C° 0 mm 1 m/s 640 mmHg 79%
16:00 +4°C° 0 mm 1 m/s 640 mmHg 81%
17:00 +3°C° 0 mm 1 m/s 640 mmHg 82%
18:00 +2°C° 0 mm 1 m/s 640 mmHg 84%
19:00 +2°C° 0.1 mm 1 m/s 640 mmHg 86%
20:00 +2°C° 0.1 mm 2 m/s 640 mmHg 88%
21:00 +2°C° 0.1 mm 2 m/s 641 mmHg 90%
22:00 +2°C° 0.1 mm 2 m/s 641 mmHg 91%
23:00 +2°C° 0.1 mm 2 m/s 641 mmHg 92%

27 Ianuarie, Miercuri

Timp Temperatura Precipitaţii Vânt Presiune Umiditate
00:00 +2°C° 0.1 mm 2 m/s 641 mmHg 93%
01:00 +2°C° 0 mm 2 m/s 641 mmHg 93%
02:00 +2°C° 0 mm 2 m/s 641 mmHg 93%
03:00 +1°C° 0 mm 3 m/s 641 mmHg 93%
04:00 +1°C° 0 mm 3 m/s 641 mmHg 91%
05:00 +1°C° 0 mm 3 m/s 641 mmHg 90%
06:00 0°C° 0 mm 3 m/s 641 mmHg 89%
07:00 +2°C° 0 mm 2 m/s 642 mmHg 85%
08:00 +2°C° 0 mm 2 m/s 642 mmHg 82%
09:00 +3°C° 0 mm 2 m/s 643 mmHg 78%
10:00 +4°C° 0 mm 2 m/s 643 mmHg 78%
11:00 +6°C° 0 mm 1 m/s 643 mmHg 77%
12:00 +7°C° 0 mm 1 m/s 643 mmHg 77%
13:00 +7°C° 0 mm 1 m/s 643 mmHg 77%
14:00 +7°C° 0 mm 1 m/s 643 mmHg 77%
15:00 +7°C° 0 mm 1 m/s 643 mmHg 77%
16:00 +4°C° 0 mm 2 m/s 642 mmHg 73%
17:00 +3°C° 0 mm 2 m/s 642 mmHg 70%
18:00 +2°C° 0 mm 2 m/s 641 mmHg 67%
19:00 +2°C° 0 mm 2 m/s 642 mmHg 64%
20:00 +2°C° 0 mm 2 m/s 642 mmHg 61%
21:00 +2°C° 0 mm 2 m/s 642 mmHg 57%
22:00 +2°C° 0 mm 2 m/s 642 mmHg 60%
23:00 +3°C° 0 mm 2 m/s 642 mmHg 63%

28 Ianuarie, Joi

Timp Temperatura Precipitaţii Vânt Presiune Umiditate
00:00 +3°C° 0 mm 2 m/s 642 mmHg 66%
01:00 +3°C° 0 mm 2 m/s 642 mmHg 67%
02:00 +3°C° 0 mm 2 m/s 642 mmHg 69%
03:00 +3°C° 0 mm 2 m/s 641 mmHg 70%
04:00 +3°C° 0 mm 2 m/s 641 mmHg 73%
05:00 +2°C° 0 mm 2 m/s 641 mmHg 76%
06:00 +2°C° 0 mm 2 m/s 641 mmHg 79%
07:00 +3°C° 0 mm 2 m/s 642 mmHg 81%
08:00 +4°C° 0 mm 2 m/s 643 mmHg 83%
09:00 +6°C° 0 mm 1 m/s 643 mmHg 85%
10:00 +7°C° 0 mm 1 m/s 643 mmHg 84%
11:00 +7°C° 0 mm 1 m/s 644 mmHg 83%
12:00 +8°C° 0 mm 1 m/s 644 mmHg 82%
13:00 +8°C° 0 mm 1 m/s 644 mmHg 83%
14:00 +8°C° 0 mm 1 m/s 643 mmHg 85%
15:00 +7°C° 0 mm 2 m/s 643 mmHg 86%
16:00 +6°C° 0 mm 2 m/s 643 mmHg 88%
17:00 +5°C° 0 mm 2 m/s 642 mmHg 91%
18:00 +3°C° 0 mm 3 m/s 642 mmHg 93%
Arată mai mult

Formular de consimțământ

Meteoprog și furnizorii noștri de servicii pot stoca și accesa date personale, precum cookies, identificatori de dispozitiv sau alte tehnologii similare pe dispozitivul dumneavoastră și procesa astfel de date pentru a personaliza conținutul și reclamele, dar și pentru a oferi caracteristici de social media și pentru a analiza traficul.

  • Stocarea și/sau accesarea informațiilor pe dispozitivul dumneavoastră

    Cookies, identificatori de dispozitiv sau alte informații pot fi stocate sau accesate pe dispozitiv în scopurile indicate mai sus.

  • Reclame și conținut personalizat, evaluarea reclamelor și a conținutului, informații despre audiențe și dezvoltarea produselor

    Reclamele și conținutul pot fi personalizate pe baza unui profil. Pot fi adăugate date suplimentare pentru a personaliza mai bine reclamele și conținutul. Performanța reclamelor și conținutului poate fi măsurată. Pot fi obținute informații despre utilizatorii care au văzut reclamele și conținutul. Aceste date pot fi utilizate pentru a dezvolta sau îmbunătăți experiența utilizatorilor, sistemele și software-ul.

Dând clic pe ‘Sunt de acord’, permiteți utilizarea cookie-urilor menționate, a identificatorilor de dispozitiv, balizelor web sau altor tehnologii similare. Setările pot fi modificate din browser-ul dispozitivului dumneavoastră.

În anumite scopuri, interesele legitime pot prima asupra consimțământului. Puteți citi mai multe informații în acest sens în Politica privind Confidențialitatea Datelor și Cookie.